| time (UTC) | temp F | wind direction | speed knots | gust knots | rain 1hr in | rain 24hr in | rain mn in | humidity % | barometer mb |
| 20260509071502 | 59 | 206 | 1.7 | 3.5 | 0.00 | 0.00 | 0.00 | 74 | 1015.1 |
| 20260509070001 | 59 | 207 | 2.6 | 4.3 | 0.00 | 0.00 | 0.00 | 75 | 1015.0 |
| 20260509064617 | 59 | 215 | 1.7 | 3.5 | 0.00 | 0.00 | 0.00 | 75 | 1015.0 |
| 20260509063100 | 60 | 231 | 0.9 | 2.6 | 0.00 | 0.00 | 0.00 | 74 | 1015.0 |
| 20260509061559 | 59 | 262 | 1.7 | 3.5 | 0.00 | 0.00 | 0.00 | 75 | 1014.8 |
| 20260509060058 | 60 | 208 | 0.9 | 2.6 | 0.00 | 0.00 | 0.00 | 73 | 1014.8 |
| 20260509054603 | 60 | 225 | 0.9 | 3.5 | 0.00 | 0.00 | 0.00 | 73 | 1014.6 |
| 20260509053106 | 60 | 230 | 1.7 | 4.3 | 0.00 | 0.00 | 0.00 | 74 | 1014.4 |
| 20260509051602 | 60 | 244 | 0.9 | 2.6 | 0.00 | 0.00 | 0.00 | 74 | 1014.3 |
| 20260509050104 | 60 | 227 | 0.9 | 3.5 | 0.00 | 0.00 | 0.00 | 74 | 1014.3 |
| 20260509044556 | 60 | 251 | 0.9 | 2.6 | 0.00 | 0.00 | 0.00 | 74 | 1014.2 |
| 20260509043054 | 60 | 223 | 1.7 | 3.5 | 0.00 | 0.00 | 0.00 | 73 | 1014.1 |
| 20260509041555 | 61 | 224 | 0.0 | 0.0 | 0.00 | 0.00 | 0.00 | 71 | 1014.2 |
| 20260509040054 | 61 | 298 | 0.9 | 1.7 | 0.00 | 0.00 | 0.00 | 73 | 1014.2 |
| 20260509034551 | 61 | 291 | 0.9 | 2.6 | 0.00 | 0.00 | 0.00 | 74 | 1014.2 |
| 20260509033059 | 61 | 214 | 0.9 | 2.6 | 0.00 | 0.00 | 0.00 | 74 | 1014.2 |
| 20260509031532 | 61 | 236 | 2.6 | 5.2 | 0.00 | 0.00 | 0.00 | 73 | 1014.2 |
| 20260509030030 | 60 | 207 | 0.9 | 4.3 | 0.00 | 0.00 | 0.00 | 74 | 1014.2 |
| 20260509024528 | 60 | 215 | 1.7 | 2.6 | 0.00 | 0.00 | 0.00 | 74 | 1014.3 |
| 20260509023030 | 59 | 198 | 1.7 | 3.5 | 0.00 | 0.00 | 0.00 | 76 | 1014.4 |
| 20260509021525 | 59 | 187 | 1.7 | 3.5 | 0.00 | 0.00 | 0.00 | 75 | 1014.5 |
| 20260509020022 | 60 | 173 | 1.7 | 3.5 | 0.00 | 0.00 | 0.00 | 72 | 1014.6 |
| 20260509014534 | 61 | 181 | 0.9 | 1.7 | 0.00 | 0.00 | 0.00 | 70 | 1014.8 |
| 20260509013015 | 62 | 298 | 0.0 | 1.7 | 0.00 | 0.00 | 0.00 | 68 | 1015.0 |
| 20260509011514 | 62 | 348 | 0.0 | 4.3 | 0.00 | 0.00 | 0.00 | 69 | 1015.1 |
| 20260509010012 | 62 | 339 | 2.6 | 5.2 | 0.00 | 0.00 | 0.00 | 70 | 1015.3 |
| 20260509004510 | 62 | 345 | 2.6 | 5.2 | 0.00 | 0.00 | 0.00 | 71 | 1015.5 |
| 20260509003000 | 62 | 313 | 2.6 | 6.1 | 0.00 | 0.00 | 0.00 | 72 | 1015.6 |
| 20260509001559 | 62 | 4 | 1.7 | 7.8 | 0.00 | 0.00 | 0.00 | 75 | 1015.7 |
| 20260509000058 | 62 | 305 | 2.6 | 7.8 | 0.00 | 0.00 | 0.00 | 76 | 1015.7 |
| 20260508234556 | 62 | 309 | 0.9 | 3.5 | 0.00 | 0.00 | 0.00 | 73 | 1015.6 |
| 20260508233118 | 62 | 302 | 0.9 | 2.6 | 0.00 | 0.00 | 0.00 | 76 | 1015.7 |
| 20260508231557 | 62 | 343 | 0.9 | 2.6 | 0.00 | 0.00 | 0.00 | 76 | 1015.7 |
| 20260508230056 | 63 | 29 | 1.7 | 5.2 | 0.00 | 0.00 | 0.00 | 76 | 1015.7 |
| 20260508224607 | 63 | 360 | 3.5 | 8.7 | 0.00 | 0.00 | 0.00 | 76 | 1015.8 |
| 20260508223050 | 63 | 326 | 2.6 | 7.0 | 0.00 | 0.00 | 0.00 | 77 | 1015.9 |
| 20260508221549 | 63 | 355 | 3.5 | 7.8 | 0.00 | 0.00 | 0.00 | 77 | 1015.7 |
| 20260508220017 | 63 | 5 | 3.5 | 7.8 | 0.00 | 0.00 | 0.00 | 77 | 1015.6 |
| 20260508214517 | 64 | 18 | 4.3 | 9.6 | 0.00 | 0.00 | 0.00 | 79 | 1015.4 |
| 20260508213015 | 63 | 351 | 2.6 | 7.8 | 0.00 | 0.00 | 0.00 | 78 | 1015.3 |
| 20260508211522 | 64 | 352 | 4.3 | 9.6 | 0.00 | 0.00 | 0.00 | 79 | 1015.2 |
| 20260508210012 | 64 | 359 | 3.5 | 9.6 | 0.00 | 0.00 | 0.00 | 79 | 1015.1 |
| 20260508204511 | 64 | 342 | 2.6 | 7.0 | 0.00 | 0.00 | 0.00 | 78 | 1014.9 |
| 20260508203009 | 64 | 345 | 1.7 | 6.1 | 0.00 | 0.00 | 0.00 | 78 | 1014.8 |
| 20260508201507 | 64 | 353 | 3.5 | 7.8 | 0.00 | 0.00 | 0.00 | 77 | 1014.7 |
| 20260508200008 | 64 | 354 | 3.5 | 7.0 | 0.00 | 0.01 | 0.00 | 76 | 1014.6 |
| 20260508194512 | 64 | 337 | 2.6 | 9.6 | 0.00 | 0.01 | 0.00 | 76 | 1014.5 |
| 20260508193009 | 64 | 343 | 3.5 | 10.4 | 0.00 | 0.01 | 0.00 | 72 | 1014.5 |
| 20260508191509 | 65 | 334 | 4.3 | 12.2 | 0.00 | 0.01 | 0.00 | 74 | 1014.3 |
| 20260508190004 | 65 | 347 | 7.0 | 13.9 | 0.00 | 0.01 | 0.00 | 75 | 1014.2 |
| 20260508184506 | 65 | 11 | 6.1 | 11.3 | 0.00 | 0.01 | 0.00 | 77 | 1013.9 |
| 20260508183003 | 65 | 319 | 6.1 | 13.0 | 0.00 | 0.01 | 0.00 | 74 | 1013.7 |
| 20260508181502 | 65 | 356 | 7.0 | 13.9 | 0.00 | 0.01 | 0.00 | 78 | 1013.6 |
| 20260508180003 | 65 | 332 | 7.8 | 14.8 | 0.00 | 0.01 | 0.00 | 79 | 1013.7 |
| 20260508174614 | 66 | 360 | 5.2 | 9.6 | 0.00 | 0.01 | 0.00 | 76 | 1013.5 |
| 20260508173059 | 67 | 335 | 4.3 | 10.4 | 0.00 | 0.01 | 0.00 | 76 | 1013.6 |
| 20260508171558 | 66 | 304 | 7.0 | 11.3 | 0.00 | 0.01 | 0.00 | 76 | 1013.9 |
| 20260508170157 | 66 | 354 | 6.1 | 10.4 | 0.00 | 0.01 | 0.00 | 73 | 1013.7 |
| 20260508164555 | 66 | 330 | 7.0 | 12.2 | 0.00 | 0.01 | 0.00 | 72 | 1013.6 |
| 20260508163055 | 66 | 298 | 4.3 | 9.6 | 0.00 | 0.01 | 0.00 | 73 | 1013.6 |
| 20260508161556 | 66 | 351 | 4.3 | 9.6 | 0.00 | 0.01 | 0.00 | 72 | 1013.4 |
| 20260508160054 | 66 | 345 | 3.5 | 12.2 | 0.00 | 0.02 | 0.00 | 72 | 1013.6 |
| 20260508154554 | 66 | 324 | 6.1 | 11.3 | 0.00 | 0.02 | 0.00 | 70 | 1013.7 |
| 20260508153052 | 66 | 300 | 5.2 | 13.0 | 0.00 | 0.02 | 0.00 | 69 | 1013.8 |
| 20260508151557 | 67 | 333 | 7.8 | 13.9 | 0.00 | 0.02 | 0.00 | 69 | 1013.8 |
| 20260508150049 | 67 | 347 | 5.2 | 13.0 | 0.00 | 0.02 | 0.00 | 67 | 1013.8 |
| 20260508144551 | 67 | 360 | 5.2 | 11.3 | 0.00 | 0.02 | 0.00 | 68 | 1013.8 |
| 20260508143056 | 67 | 354 | 5.2 | 13.0 | 0.00 | 0.02 | 0.00 | 69 | 1013.8 |
| 20260508141546 | 66 | 308 | 6.1 | 13.0 | 0.00 | 0.02 | 0.00 | 67 | 1013.9 |
| 20260508140053 | 66 | 294 | 5.2 | 12.2 | 0.00 | 0.03 | 0.00 | 69 | 1014.0 |
| 20260508134551 | 66 | 360 | 4.3 | 10.4 | 0.00 | 0.03 | 0.00 | 70 | 1013.9 |
| 20260508133052 | 66 | 309 | 7.0 | 13.0 | 0.00 | 0.03 | 0.00 | 69 | 1014.0 |
| 20260508131547 | 66 | 329 | 5.2 | 11.3 | 0.00 | 0.03 | 0.00 | 69 | 1014.1 |
| 20260508130059 | 66 | 3 | 6.1 | 12.2 | 0.00 | 0.03 | 0.00 | 68 | 1014.0 |
| 20260508124549 | 66 | 286 | 5.2 | 12.2 | 0.00 | 0.03 | 0.00 | 68 | 1014.1 |
| 20260508123053 | 66 | 329 | 4.3 | 11.3 | 0.00 | 0.03 | 0.00 | 68 | 1014.3 |
| 20260508121544 | 66 | 345 | 6.1 | 12.2 | 0.00 | 0.03 | 0.00 | 68 | 1014.2 |
| 20260508120041 | 67 | 323 | 5.2 | 10.4 | 0.00 | 0.03 | 0.00 | 65 | 1014.2 |
| 20260508114546 | 66 | 36 | 4.3 | 11.3 | 0.00 | 0.03 | 0.00 | 64 | 1014.3 |
| 20260508113037 | 66 | 8 | 1.7 | 7.0 | 0.00 | 0.03 | 0.00 | 65 | 1014.2 |
| 20260508111535 | 66 | 334 | 2.6 | 9.6 | 0.00 | 0.03 | 0.00 | 64 | 1014.2 |
| 20260508110039 | 65 | 116 | 0.0 | 3.5 | 0.00 | 0.03 | 0.00 | 67 | 1014.4 |
| 20260508104532 | 64 | 292 | 4.3 | 10.4 | 0.00 | 0.03 | 0.00 | 66 | 1014.4 |
| 20260508103040 | 64 | 296 | 2.6 | 9.6 | 0.00 | 0.03 | 0.00 | 68 | 1014.3 |
| 20260508101538 | 64 | 335 | 3.5 | 8.7 | 0.00 | 0.03 | 0.00 | 68 | 1014.3 |
| 20260508100030 | 64 | 307 | 2.6 | 9.6 | 0.00 | 0.03 | 0.00 | 68 | 1014.4 |
| 20260508094541 | 64 | 7 | 2.6 | 7.0 | 0.00 | 0.03 | 0.00 | 67 | 1014.5 |
| 20260508093029 | 63 | 325 | 2.6 | 6.1 | 0.00 | 0.03 | 0.00 | 63 | 1014.4 |
| 20260508091541 | 64 | 311 | 2.6 | 6.1 | 0.00 | 0.03 | 0.00 | 63 | 1014.1 |
| 20260508090029 | 64 | 2 | 1.7 | 5.2 | 0.00 | 0.03 | 0.00 | 64 | 1014.0 |
| 20260508084522 | 62 | 187 | 0.9 | 5.2 | 0.00 | 0.03 | 0.00 | 78 | 1013.9 |
| 20260508083021 | 60 | 175 | 2.6 | 6.1 | 0.00 | 0.03 | 0.00 | 78 | 1013.5 |
| 20260508081530 | 61 | 227 | 1.7 | 5.2 | 0.00 | 0.03 | 0.00 | 78 | 1013.6 |
| 20260508080019 | 61 | 243 | 0.9 | 4.3 | 0.00 | 0.03 | 0.00 | 78 | 1013.7 |
| 20260508074518 | 60 | 253 | 2.6 | 5.2 | 0.00 | 0.03 | 0.00 | 79 | 1013.6 |
| 20260508073017 | 60 | 254 | 1.7 | 4.3 | 0.00 | 0.03 | 0.00 | 80 | 1013.5 |